TimeEDT,TemperatureF,Dew PointF,Humidity,Sea Level PressureIn,VisibilityMPH,Wind Direction,Wind SpeedMPH,Gust SpeedMPH,PrecipitationIn,Events,Conditions,WindDirDegrees,DateUTC
12:39 AM,46.4,44.6,93,30.18,0.2,North,4.6,-,N/A,Fog,Fog,360,2013-05-07 04:39:00
12:49 AM,46.4,44.6,93,30.18,0.2,Calm,Calm,-,N/A,Fog,Fog,0,2013-05-07 04:49:00
12:56 AM,46.0,45.0,96,30.18,0.2,North,3.5,-,N/A,Fog,Fog,10,2013-05-07 04:56:00
1:02 AM,46.4,44.6,93,30.17,0.5,NNE,3.5,-,N/A,Fog,Fog,20,2013-05-07 05:02:00
1:23 AM,44.6,42.8,93,30.17,2.0,ENE,3.5,-,N/A,,Overcast,60,2013-05-07 05:23:00
1:37 AM,44.6,42.8,93,30.17,0.8,Calm,Calm,-,N/A,,Overcast,0,2013-05-07 05:37:00
1:50 AM,44.6,42.8,93,30.17,2.0,ESE,3.5,-,N/A,,Overcast,120,2013-05-07 05:50:00
1:56 AM,44.6,42.8,93,30.17,2.5,East,3.5,-,N/A,,Overcast,100,2013-05-07 05:56:00
2:04 AM,46.4,44.6,93,30.17,7.0,ENE,3.5,-,N/A,,Overcast,60,2013-05-07 06:04:00
2:56 AM,45.0,43.0,93,30.16,7.0,ENE,3.5,-,N/A,,Overcast,60,2013-05-07 06:56:00
3:15 AM,44.6,42.8,93,30.16,1.5,Calm,Calm,-,N/A,,Overcast,0,2013-05-07 07:15:00
3:24 AM,44.6,42.8,93,30.16,0.5,Calm,Calm,-,N/A,Fog,Fog,0,2013-05-07 07:24:00
3:48 AM,44.6,42.8,93,30.16,2.0,NE,3.5,-,N/A,,Overcast,50,2013-05-07 07:48:00
3:56 AM,44.1,43.0,96,30.16,4.0,Calm,Calm,-,N/A,,Overcast,0,2013-05-07 07:56:00
4:13 AM,44.6,41.0,87,30.16,7.0,Calm,Calm,-,N/A,,Scattered Clouds,0,2013-05-07 08:13:00
4:27 AM,42.8,39.2,87,30.15,2.0,Calm,Calm,-,N/A,,Clear,0,2013-05-07 08:27:00
4:37 AM,42.8,41.0,93,30.15,8.0,Calm,Calm,-,N/A,,Clear,0,2013-05-07 08:37:00
4:53 AM,42.8,41.0,93,30.15,8.0,Calm,Calm,-,N/A,,Scattered Clouds,0,2013-05-07 08:53:00
4:56 AM,42.1,39.9,92,30.15,8.0,Calm,Calm,-,N/A,,Scattered Clouds,0,2013-05-07 08:56:00
5:03 AM,42.8,39.2,87,30.15,8.0,Calm,Calm,-,N/A,,Mostly Cloudy,0,2013-05-07 09:03:00
5:32 AM,42.8,41.0,93,30.15,8.0,NE,3.5,-,N/A,,Scattered Clouds,40,2013-05-07 09:32:00
5:56 AM,45.0,43.0,93,30.15,7.0,NNE,4.6,-,N/A,,Clear,30,2013-05-07 09:56:00
6:56 AM,48.9,46.0,90,30.17,7.0,Calm,Calm,-,N/A,,Clear,0,2013-05-07 10:56:00
7:56 AM,55.0,46.9,74,30.16,9.0,NNE,4.6,-,N/A,,Clear,20,2013-05-07 11:56:00
8:56 AM,55.9,48.9,77,30.17,9.0,South,3.5,-,N/A,,Clear,190,2013-05-07 12:56:00
9:56 AM,57.0,51.1,81,30.19,6.0,SSE,10.4,-,N/A,,Haze,150,2013-05-07 13:56:00
10:02 AM,55.4,51.8,88,30.19,2.0,SE,6.9,-,N/A,,Mostly Cloudy,140,2013-05-07 14:02:00
10:16 AM,57.2,51.8,82,30.18,2.0,ESE,6.9,-,N/A,,Mostly Cloudy,110,2013-05-07 14:16:00
10:56 AM,59.0,53.1,81,30.19,4.0,SSE,9.2,-,N/A,,Haze,160,2013-05-07 14:56:00
11:30 AM,60.8,53.6,77,30.18,7.0,ESE,6.9,-,N/A,,Overcast,120,2013-05-07 15:30:00
11:46 AM,60.8,53.6,77,30.18,7.0,SE,8.1,-,N/A,,Overcast,130,2013-05-07 15:46:00
11:56 AM,60.1,53.1,78,30.18,5.0,SE,6.9,-,N/A,,Haze,140,2013-05-07 15:56:00
12:56 PM,60.1,53.1,78,30.17,7.0,SE,5.8,-,N/A,,Overcast,140,2013-05-07 16:56:00
1:56 PM,60.1,54.0,80,30.16,3.0,SE,8.1,-,N/A,,Haze,140,2013-05-07 17:56:00
2:34 PM,57.2,53.6,88,30.16,7.0,SE,5.8,-,N/A,,Scattered Clouds,140,2013-05-07 18:34:00
2:56 PM,60.8,53.6,77,30.15,7.0,SSE,8.1,-,N/A,,Scattered Clouds,160,2013-05-07 18:56:00
3:56 PM,60.1,53.1,78,30.14,10.0,SE,8.1,-,N/A,,Scattered Clouds,130,2013-05-07 19:56:00
4:56 PM,62.1,54.0,75,30.14,10.0,Variable,6.9,-,N/A,,Clear,0,2013-05-07 20:56:00
5:56 PM,59.0,54.0,83,30.14,10.0,East,3.5,-,N/A,,Partly Cloudy,100,2013-05-07 21:56:00
6:12 PM,57.2,53.6,88,30.13,10.0,East,3.5,-,N/A,,Mostly Cloudy,90,2013-05-07 22:12:00
6:20 PM,57.2,53.6,88,30.13,10.0,East,4.6,-,N/A,,Scattered Clouds,100,2013-05-07 22:20:00
6:56 PM,57.0,53.1,87,30.14,9.0,East,4.6,-,N/A,,Partly Cloudy,100,2013-05-07 22:56:00
7:56 PM,55.9,53.1,90,30.15,9.0,ESE,4.6,-,N/A,,Clear,110,2013-05-07 23:56:00
8:23 PM,55.4,53.6,94,30.15,10.0,ESE,4.6,-,N/A,,Partly Cloudy,110,2013-05-08 00:23:00
8:56 PM,55.9,53.1,90,30.16,10.0,East,5.8,-,N/A,,Clear,80,2013-05-08 00:56:00
9:56 PM,57.0,53.1,87,30.17,10.0,NE,3.5,-,N/A,,Clear,50,2013-05-08 01:56:00
10:56 PM,57.0,53.1,87,30.17,10.0,NE,4.6,-,N/A,,Clear,50,2013-05-08 02:56:00
11:56 PM,57.9,54.0,87,30.16,10.0,NE,3.5,-,N/A,,Mostly Cloudy,50,2013-05-08 03:56:00